Simultaneous Nadir Overpasses (SNOs) Predictions

Prediction of SNOs between METOP-B and NOAA-19 Satellite Orbit:

Table of predicted SNOs for the next 14.0 days since TLE Epoch: 4/6/2017
Index Date (METOP-B) Time (METOP-B) Lat,Lon (METOP-B) SZA (METOP-B ) Date (NOAA-19) Time (NOAA-19) Lat,Lon (NOAA-19) SZA (NOAA-19 ) Distance(km) Time Diff (sec)
1 04/11/2017 01:59:13 -77.35, -24.32 111.01 04/11/2017 01:58:05 -77.36, -27.19 111.05 69.79 68
2 04/11/2017 02:50:00 77.04, 141.69 68.65 04/11/2017 02:49:00 77.01, 141.63 68.62 3.24 60
3 04/11/2017 03:40:42 -77.03, -51.03 111.38 04/11/2017 03:39:58 -77.00, -51.05 111.41 3.26 44
4 04/11/2017 04:31:22 77.02, 116.28 68.60 04/11/2017 04:31:01 76.99, 116.25 68.57 3.90 21
5 04/11/2017 05:22:04 -77.01, -76.44 111.43 04/11/2017 05:22:00 -77.01, -76.61 111.43 4.24 4
6 04/11/2017 06:12:44 77.00, 90.86 68.56 04/11/2017 06:13:03 77.00, 90.68 68.55 4.40 19
7 04/11/2017 07:03:26 -76.99,-101.86 111.47 04/11/2017 07:04:01 -76.99,-101.99 111.48 3.40 35
8 04/11/2017 07:54:06 76.98, 65.44 68.51 04/11/2017 07:55:04 76.97, 65.30 68.50 3.72 58
9 04/11/2017 08:44:48 -76.97,-127.27 111.52 04/11/2017 08:46:02 -76.96,-127.37 111.53 3.02 74




NCC Satellite Simultaneous Nadir Overpasses (SNOs) Prediction Service
